Location: Bear Valley Community Church - Hurst
(32.8460°N, 97.1828°W)
Time: 03:56:21
(UTC+00:00)

FALCON 9 DEB - Visible Passes

Search period start: 07 October 2022 00:00
Search period end: 17 October 2022 00:00
Orbit: 384 x 395 km, 53.2° (Epoch: 06 October)

Date Brightness Start Highest point End Pass type
(mag) Time Alt. Az. Time Alt. Az. Time Alt. Az.
07 Oct ? 01:31:11 10° S 01:31:51 14° S 01:31:51 14° S visible
08 Oct ? 00:36:47 10° SE 00:37:10 10° ESE 00:37:32 10° ESE visible
08 Oct ? 02:09:44 10° WSW 02:10:34 16° WSW 02:10:34 16° WSW visible
09 Oct ? 01:12:34 10° SSW 01:15:42 62° SE 01:16:35 41° ENE visible
10 Oct ? 01:51:55 10° W 01:54:30 22° NW 01:54:39 22° NW visible
11 Oct ? 00:53:56 10° SW 00:57:02 55° NW 01:00:04 11° NE visible
12 Oct ? 01:34:11 10° WNW 01:35:45 13° NW 01:37:21 10° N visible
13 Oct ? 00:35:11 10° W 00:37:55 26° NW 00:40:40 10° NNE visible
